TimeAKST,TemperatureF,Dew PointF,Humidity,Sea Level PressureIn,VisibilityMPH,Wind Direction,Wind SpeedMPH,Gust SpeedMPH,PrecipitationIn,Events,Conditions,WindDirDegrees,DateUTC
12:53 AM,27.0,8.1,45,29.85,10.0,NE,17.3,31.1,N/A,,Mostly Cloudy,40,2012-11-24 09:53:00
1:53 AM,27.0,8.1,45,29.85,10.0,NNE,17.3,27.6,N/A,,Overcast,30,2012-11-24 10:53:00
3:53 AM,27.0,8.1,45,29.85,10.0,NNE,18.4,25.3,N/A,,Clear,30,2012-11-24 12:53:00
4:53 AM,27.0,8.1,45,29.85,10.0,NNE,12.7,31.1,N/A,,Overcast,30,2012-11-24 13:53:00
5:53 AM,28.0,8.1,43,29.86,10.0,NNE,13.8,24.2,N/A,,Overcast,20,2012-11-24 14:53:00
6:53 AM,27.0,8.1,45,29.87,10.0,NNE,13.8,20.7,N/A,,Overcast,30,2012-11-24 15:53:00
7:53 AM,28.0,8.1,43,29.88,10.0,NNE,16.1,32.2,N/A,,Clear,30,2012-11-24 16:53:00
8:53 AM,26.1,8.1,47,29.90,10.0,NE,20.7,28.8,N/A,,Clear,40,2012-11-24 17:53:00
9:53 AM,27.0,8.1,45,29.92,10.0,NNE,19.6,28.8,N/A,,Clear,30,2012-11-24 18:53:00
10:53 AM,26.1,8.1,47,29.93,10.0,NNE,18.4,27.6,N/A,,Clear,30,2012-11-24 19:53:00
11:53 AM,28.0,8.1,43,29.94,10.0,NE,18.4,28.8,N/A,,Clear,40,2012-11-24 20:53:00
12:53 PM,27.0,8.1,45,29.95,10.0,NNE,21.9,35.7,N/A,,Clear,20,2012-11-24 21:53:00
1:53 PM,27.0,8.1,45,29.98,10.0,NNE,13.8,25.3,N/A,,Clear,30,2012-11-24 22:53:00
2:53 PM,27.0,8.1,45,29.99,10.0,NE,17.3,27.6,N/A,,Mostly Cloudy,40,2012-11-24 23:53:00
3:53 PM,26.1,8.1,47,30.01,10.0,NNE,11.5,25.3,N/A,,Partly Cloudy,30,2012-11-25 00:53:00
4:53 PM,26.1,8.1,47,30.03,10.0,NNE,8.1,28.8,N/A,,Mostly Cloudy,20,2012-11-25 01:53:00
5:53 PM,26.1,8.1,47,30.03,10.0,NE,15.0,26.5,N/A,,Overcast,50,2012-11-25 02:53:00
6:53 PM,26.1,9.0,49,30.05,10.0,North,10.4,21.9,N/A,,Overcast,360,2012-11-25 03:53:00
7:53 PM,26.1,9.0,49,30.07,10.0,Calm,Calm,-,N/A,,Overcast,0,2012-11-25 04:53:00
8:53 PM,26.1,9.0,49,30.09,10.0,Calm,Calm,-,N/A,,Overcast,0,2012-11-25 05:53:00
9:53 PM,25.0,10.0,53,30.10,10.0,WNW,4.6,-,N/A,,Overcast,290,2012-11-25 06:53:00
10:53 PM,26.1,10.0,51,30.13,10.0,Calm,Calm,-,N/A,,Overcast,0,2012-11-25 07:53:00
11:53 PM,26.1,10.0,51,30.14,10.0,Calm,Calm,-,N/A,,Overcast,0,2012-11-25 08:53:00